Simultaneous Nadir Overpasses (SNOs) Predictions

Prediction of SNOs between GOES-16 and NOAA-19 Satellite Orbit:

Table of predicted SNOs for the next 14.0 days since TLE Epoch: 9/10/2022
Index Date Time (GOES-16) GOES-16 Lat,Lon NOAA-19 Lat,Lon Distance(km) Time Diff (sec)
1 09/11/2022 01:16:52 0.03, -75.19 -0.99, -79.48 490.81 80
2 09/12/2022 01:04:59 0.03, -75.19 -0.32, -76.59 159.59 80
3 09/13/2022 00:55:47 0.03, -75.20 0.35, -73.69 171.90 80
4 09/15/2022 13:13:39 -0.03, -75.24 0.75, -78.56 379.39 80
5 09/16/2022 13:01:46 -0.03, -75.25 0.08, -75.66 47.69 80
6 09/17/2022 12:52:34 -0.02, -75.26 -0.58, -72.77 284.16 80
7 09/20/2022 01:13:05 0.02, -75.28 -0.49, -77.64 268.30 80
8 09/21/2022 00:58:31 0.02, -75.30 0.13, -74.73 64.08 80
9 09/22/2022 00:46:39 0.02, -75.31 0.80, -71.83 396.48 80
10 09/23/2022 13:21:43 -0.02, -75.35 0.99, -79.60 484.92 80
